Wetterdaten: Sonntag, 19.07.2015
Datum Zeit Temp. A. Feuchte A. Luftdruck Regen Wind Richtung Richtung Sonnenschein ET UV Solar Taupunkt Windchill Windben Empfang
19.07.2015 00:00 20,7 C 82 % 1013,8 hPa 0,0 l/m 0,0 km/h (0 Bft) NO 52 0 min 0,000 mm 0,0 UV-I 0 W/m 17,5 C 20,7 C 0,0 km/h (0 Bft) 0,00 %
19.07.2015 00:05 20,4 C 82 % 1013,7 hPa 0,0 l/m 0,0 km/h (0 Bft) O-NO 58 0 min 0,000 mm 0,0 UV-I 0 W/m 17,2 C 20,4 C 0,0 km/h (0 Bft) 0,00 %
19.07.2015 00:10 20,3 C 82 % 1013,7 hPa 0,0 l/m 0,0 km/h (0 Bft) O-SO 112 0 min 0,000 mm 0,0 UV-I 0 W/m 17,1 C 20,3 C 0,0 km/h (0 Bft) 0,00 %
19.07.2015 00:15 20,2 C 82 % 1013,7 hPa 0,0 l/m 0,0 km/h (0 Bft) N 354 0 min 0,000 mm 0,0 UV-I 0 W/m 17,0 C 20,2 C 0,0 km/h (0 Bft) 0,00 %
19.07.2015 00:20 20,1 C 82 % 1013,7 hPa 0,0 l/m 0,0 km/h (0 Bft) NO 49 0 min 0,000 mm 0,0 UV-I 0 W/m 16,9 C 20,1 C 0,0 km/h (0 Bft) 0,00 %
19.07.2015 00:25 19,9 C 83 % 1014,2 hPa 0,0 l/m 0,0 km/h (0 Bft) NO 40 0 min 0,000 mm 0,0 UV-I 0 W/m 16,9 C 19,9 C 0,0 km/h (0 Bft) 0,00 %
19.07.2015 00:30 19,9 C 84 % 1014,4 hPa 0,0 l/m 0,0 km/h (0 Bft) N-NO 24 0 min 0,000 mm 0,0 UV-I 0 W/m 17,1 C 19,9 C 0,0 km/h (0 Bft) 0,00 %
19.07.2015 00:35 19,9 C 85 % 1014,6 hPa 0,0 l/m 0,0 km/h (0 Bft) NO 40 0 min 0,000 mm 0,0 UV-I 0 W/m 17,3 C 19,9 C 0,0 km/h (0 Bft) 0,00 %
19.07.2015 00:40 19,9 C 85 % 1014,6 hPa 0,0 l/m 0,0 km/h (0 Bft) O-SO 116 0 min 0,000 mm 0,0 UV-I 0 W/m 17,3 C 19,9 C 0,0 km/h (0 Bft) 0,00 %
19.07.2015 00:45 19,9 C 84 % 1014,8 hPa 0,0 l/m 0,0 km/h (0 Bft) NO 55 0 min 0,000 mm 0,0 UV-I 0 W/m 17,1 C 19,9 C 0,0 km/h (0 Bft) 0,00 %
19.07.2015 00:50 19,8 C 84 % 1014,6 hPa 0,0 l/m 0,0 km/h (0 Bft) NO 43 0 min 0,000 mm 0,0 UV-I 0 W/m 17,0 C 19,8 C 0,0 km/h (0 Bft) 0,00 %
19.07.2015 00:55 19,8 C 84 % 1014,4 hPa 0,0 l/m 0,0 km/h (0 Bft) NO 40 0 min 0,000 mm 0,0 UV-I 0 W/m 17,0 C 19,8 C 0,0 km/h (0 Bft) 0,00 %
19.07.2015 01:00 19,8 C 84 % 1014,5 hPa 0,0 l/m 0,0 km/h (0 Bft) NO 36 0 min 0,000 mm 0,0 UV-I 0 W/m 17,0 C 19,8 C 0,0 km/h (0 Bft) 0,00 %
19.07.2015 01:05 19,8 C 84 % 1014,2 hPa 0,0 l/m 0,0 km/h (0 Bft) N-NO 22 0 min 0,000 mm 0,0 UV-I 0 W/m 17,0 C 19,8 C 0,0 km/h (0 Bft) 0,00 %
19.07.2015 01:10 19,8 C 84 % 1014,1 hPa 0,0 l/m 0,0 km/h (0 Bft) NO 35 0 min 0,000 mm 0,0 UV-I 0 W/m 17,0 C 19,8 C 0,0 km/h (0 Bft) 0,00 %
19.07.2015 01:15 19,8 C 84 % 1014,1 hPa 0,0 l/m 0,0 km/h (0 Bft) N-NO 33 0 min 0,000 mm 0,0 UV-I 0 W/m 17,0 C 19,8 C 0,0 km/h (0 Bft) 0,00 %
19.07.2015 01:20 19,8 C 85 % 1013,9 hPa 0,0 l/m 0,0 km/h (0 Bft) NO 50 0 min 0,000 mm 0,0 UV-I 0 W/m 17,2 C 19,8 C 0,0 km/h (0 Bft) 0,00 %
19.07.2015 01:25 19,7 C 85 % 1013,8 hPa 0,0 l/m 0,0 km/h (0 Bft) NO 37 0 min 0,000 mm 0,0 UV-I 0 W/m 17,1 C 19,7 C 0,0 km/h (0 Bft) 0,00 %
19.07.2015 01:30 19,5 C 85 % 1013,9 hPa 0,0 l/m 0,0 km/h (0 Bft) NO 44 0 min 0,000 mm 0,0 UV-I 0 W/m 16,9 C 19,5 C 0,0 km/h (0 Bft) 0,00 %
19.07.2015 01:35 19,3 C 86 % 1014,2 hPa 0,0 l/m 0,0 km/h (0 Bft) NO 44 0 min 0,000 mm 0,0 UV-I 0 W/m 16,9 C 19,3 C 0,0 km/h (0 Bft) 0,00 %
19.07.2015 01:40 19,2 C 87 % 1014,0 hPa 0,0 l/m 0,0 km/h (0 Bft) NO 45 0 min 0,000 mm 0,0 UV-I 0 W/m 17,0 C 19,2 C 0,0 km/h (0 Bft) 0,00 %
19.07.2015 01:45 19,1 C 87 % 1014,2 hPa 0,0 l/m 0,0 km/h (0 Bft) N-NO 24 0 min 0,000 mm 0,0 UV-I 0 W/m 16,9 C 19,1 C 0,0 km/h (0 Bft) 0,00 %
19.07.2015 01:50 19,0 C 88 % 1014,1 hPa 0,0 l/m 0,0 km/h (0 Bft) NO 43 0 min 0,000 mm 0,0 UV-I 0 W/m 17,0 C 19,0 C 0,0 km/h (0 Bft) 0,00 %
19.07.2015 01:55 18,9 C 89 % 1014,2 hPa 0,0 l/m 0,0 km/h (0 Bft) O-NO 57 0 min 0,000 mm 0,0 UV-I 0 W/m 17,0 C 18,9 C 0,0 km/h (0 Bft) 0,00 %
19.07.2015 02:00 18,8 C 90 % 1014,4 hPa 0,0 l/m 0,0 km/h (0 Bft) O-SO 118 0 min 0,000 mm 0,0 UV-I 0 W/m 17,1 C 18,8 C 0,0 km/h (0 Bft) 0,00 %
19.07.2015 02:05 18,7 C 91 % 1014,2 hPa 0,0 l/m 0,0 km/h (0 Bft) NO 56 0 min 0,000 mm 0,0 UV-I 0 W/m 17,2 C 18,7 C 0,0 km/h (0 Bft) 0,00 %
19.07.2015 02:10 18,6 C 91 % 1014,1 hPa 0,0 l/m 0,0 km/h (0 Bft) N-NO 31 0 min 0,000 mm 0,0 UV-I 0 W/m 17,1 C 18,6 C 0,0 km/h (0 Bft) 0,00 %
19.07.2015 02:15 18,5 C 91 % 1014,1 hPa 0,0 l/m 0,0 km/h (0 Bft) O-NO 57 0 min 0,000 mm 0,0 UV-I 0 W/m 17,0 C 18,5 C 0,0 km/h (0 Bft) 0,00 %
19.07.2015 02:20 18,3 C 91 % 1014,4 hPa 0,0 l/m 0,0 km/h (0 Bft) O-NO 61 0 min 0,000 mm 0,0 UV-I 0 W/m 16,8 C 18,3 C 0,0 km/h (0 Bft) 0,00 %
19.07.2015 02:25 18,2 C 91 % 1014,4 hPa 0,0 l/m 0,0 km/h (0 Bft) NO 50 0 min 0,000 mm 0,0 UV-I 0 W/m 16,7 C 18,2 C 0,0 km/h (0 Bft) 0,00 %
19.07.2015 02:30 18,2 C 91 % 1014,4 hPa 0,0 l/m 0,0 km/h (0 Bft) NO 43 0 min 0,000 mm 0,0 UV-I 0 W/m 16,7 C 18,2 C 0,0 km/h (0 Bft) 0,00 %
19.07.2015 02:35 18,3 C 92 % 1014,0 hPa 0,0 l/m 0,0 km/h (0 Bft) NO 43 0 min 0,000 mm 0,0 UV-I 0 W/m 17,0 C 18,3 C 0,0 km/h (0 Bft) 0,00 %
19.07.2015 02:40 18,5 C 91 % 1014,2 hPa 0,0 l/m 0,0 km/h (0 Bft) O 84 0 min 0,000 mm 0,0 UV-I 0 W/m 17,0 C 18,5 C 0,0 km/h (0 Bft) 0,00 %
19.07.2015 02:45 18,5 C 91 % 1014,1 hPa 0,0 l/m 0,0 km/h (0 Bft) NO 44 0 min 0,000 mm 0,0 UV-I 0 W/m 17,0 C 18,5 C 0,0 km/h (0 Bft) 0,00 %
19.07.2015 02:50 18,5 C 91 % 1013,8 hPa 0,0 l/m 0,0 km/h (0 Bft) NO 39 0 min 0,000 mm 0,0 UV-I 0 W/m 17,0 C 18,5 C 0,0 km/h (0 Bft) 0,00 %
19.07.2015 02:55 18,4 C 91 % 1013,9 hPa 0,0 l/m 0,0 km/h (0 Bft) NO 42 0 min 0,000 mm 0,0 UV-I 0 W/m 16,9 C 18,4 C 0,0 km/h (0 Bft) 0,00 %
19.07.2015 03:00 18,2 C 91 % 1013,8 hPa 0,0 l/m 0,0 km/h (0 Bft) NO 43 0 min 0,000 mm 0,0 UV-I 0 W/m 16,7 C 18,2 C 0,0 km/h (0 Bft) 0,00 %
19.07.2015 03:05 18,0 C 92 % 1013,8 hPa 0,0 l/m 0,0 km/h (0 Bft) O 84 0 min 0,000 mm 0,0 UV-I 0 W/m 16,7 C 18,0 C 0,0 km/h (0 Bft) 0,00 %
19.07.2015 03:10 17,9 C 92 % 1013,8 hPa 0,0 l/m 0,0 km/h (0 Bft) NO 43 0 min 0,000 mm 0,0 UV-I 0 W/m 16,6 C 17,9 C 0,0 km/h (0 Bft) 0,00 %
19.07.2015 03:15 17,8 C 93 % 1013,7 hPa 0,0 l/m 0,0 km/h (0 Bft) NO 41 0 min 0,000 mm 0,0 UV-I 0 W/m 16,7 C 17,8 C 0,0 km/h (0 Bft) 0,00 %
19.07.2015 03:20 17,7 C 93 % 1013,8 hPa 0,0 l/m 0,0 km/h (0 Bft) NO 38 0 min 0,000 mm 0,0 UV-I 0 W/m 16,6 C 17,7 C 0,0 km/h (0 Bft) 0,00 %
19.07.2015 03:25 17,6 C 93 % 1013,8 hPa 0,0 l/m 0,0 km/h (0 Bft) NO 45 0 min 0,000 mm 0,0 UV-I 0 W/m 16,5 C 17,6 C 0,0 km/h (0 Bft) 0,00 %
19.07.2015 03:30 17,5 C 93 % 1013,7 hPa 0,0 l/m 0,0 km/h (0 Bft) NO 40 0 min 0,000 mm 0,0 UV-I 0 W/m 16,4 C 17,5 C 0,0 km/h (0 Bft) 0,00 %
19.07.2015 03:35 17,4 C 93 % 1013,6 hPa 0,0 l/m 0,0 km/h (0 Bft) NO 45 0 min 0,000 mm 0,0 UV-I 0 W/m 16,3 C 17,4 C 0,0 km/h (0 Bft) 0,00 %
19.07.2015 03:40 17,3 C 93 % 1013,5 hPa 0,0 l/m 0,0 km/h (0 Bft) NO 45 0 min 0,000 mm 0,0 UV-I 0 W/m 16,2 C 17,3 C 0,0 km/h (0 Bft) 0,00 %
19.07.2015 03:45 17,2 C 93 % 1013,7 hPa 0,0 l/m 0,0 km/h (0 Bft) NO 43 0 min 0,000 mm 0,0 UV-I 0 W/m 16,1 C 17,2 C 0,0 km/h (0 Bft) 0,00 %
19.07.2015 03:50 17,2 C 93 % 1013,7 hPa 0,0 l/m 0,0 km/h (0 Bft) NO 45 0 min 0,000 mm 0,0 UV-I 0 W/m 16,1 C 17,2 C 0,0 km/h (0 Bft) 0,00 %
19.07.2015 03:55 17,2 C 93 % 1013,7 hPa 0,0 l/m 0,0 km/h (0 Bft) N-NO 19 0 min 0,000 mm 0,0 UV-I 0 W/m 16,1 C 17,2 C 0,0 km/h (0 Bft) 0,00 %
19.07.2015 04:00 17,1 C 93 % 1013,5 hPa 0,0 l/m 0,0 km/h (0 Bft) NO 41 0 min 0,000 mm 0,0 UV-I 0 W/m 16,0 C 17,1 C 0,0 km/h (0 Bft) 0,00 %
19.07.2015 04:05 17,1 C 94 % 1013,5 hPa 0,0 l/m 0,0 km/h (0 Bft) NO 40 0 min 0,000 mm 0,0 UV-I 0 W/m 16,1 C 17,1 C 0,0 km/h (0 Bft) 0,00 %
19.07.2015 04:10 17,1 C 93 % 1013,4 hPa 0,0 l/m 0,0 km/h (0 Bft) NO 41 0 min 0,000 mm 0,0 UV-I 0 W/m 16,0 C 17,1 C 0,0 km/h (0 Bft) 0,00 %
19.07.2015 04:15 17,0 C 93 % 1013,4 hPa 0,0 l/m 0,0 km/h (0 Bft) NO 40 0 min 0,000 mm 0,0 UV-I 0 W/m 15,9 C 17,0 C 0,0 km/h (0 Bft) 0,00 %
19.07.2015 04:20 16,9 C 94 % 1013,6 hPa 0,0 l/m 0,0 km/h (0 Bft) NO 37 0 min 0,000 mm 0,0 UV-I 0 W/m 15,9 C 16,9 C 0,0 km/h (0 Bft) 0,00 %
19.07.2015 04:25 16,9 C 94 % 1013,4 hPa 0,0 l/m 0,0 km/h (0 Bft) NO 39 0 min 0,000 mm 0,0 UV-I 0 W/m 15,9 C 16,9 C 0,0 km/h (0 Bft) 0,00 %
19.07.2015 04:30 16,9 C 95 % 1013,4 hPa 0,0 l/m 0,0 km/h (0 Bft) NO 39 0 min 0,000 mm 0,0 UV-I 0 W/m 16,1 C 16,9 C 0,0 km/h (0 Bft) 0,00 %
19.07.2015 04:35 16,9 C 94 % 1013,3 hPa 0,0 l/m 0,0 km/h (0 Bft) NO 44 0 min 0,000 mm 0,0 UV-I 0 W/m 15,9 C 16,9 C 0,0 km/h (0 Bft) 0,00 %
19.07.2015 04:40 16,9 C 94 % 1013,4 hPa 0,0 l/m 0,0 km/h (0 Bft) NO 36 0 min 0,000 mm 0,0 UV-I 0 W/m 15,9 C 16,9 C 0,0 km/h (0 Bft) 0,00 %
19.07.2015 04:45 16,8 C 94 % 1013,3 hPa 0,0 l/m 0,0 km/h (0 Bft) N-NO 14 0 min 0,000 mm 0,0 UV-I 0 W/m 15,8 C 16,8 C 0,0 km/h (0 Bft) 0,00 %
19.07.2015 04:50 16,7 C 94 % 1013,4 hPa 0,0 l/m 0,0 km/h (0 Bft) NO 39 0 min 0,000 mm 0,0 UV-I 0 W/m 15,7 C 16,7 C 0,0 km/h (0 Bft) 0,00 %
19.07.2015 04:55 16,7 C 94 % 1013,3 hPa 0,0 l/m 0,0 km/h (0 Bft) NO 39 0 min 0,000 mm 0,0 UV-I 0 W/m 15,7 C 16,7 C 0,0 km/h (0 Bft) 0,00 %
19.07.2015 05:00 16,6 C 94 % 1013,2 hPa 0,0 l/m 0,0 km/h (0 Bft) NO 41 0 min 0,000 mm 0,0 UV-I 0 W/m 15,6 C 16,6 C 0,0 km/h (0 Bft) 0,00 %
19.07.2015 05:05 16,6 C 94 % 1013,4 hPa 0,0 l/m 0,0 km/h (0 Bft) NO 42 0 min 0,000 mm 0,0 UV-I 0 W/m 15,6 C 16,6 C 0,0 km/h (0 Bft) 0,00 %
19.07.2015 05:10 16,5 C 94 % 1013,3 hPa 0,0 l/m 0,0 km/h (0 Bft) NO 42 0 min 0,000 mm 0,0 UV-I 0 W/m 15,5 C 16,5 C 0,0 km/h (0 Bft) 0,00 %
19.07.2015 05:15 16,4 C 94 % 1013,0 hPa 0,0 l/m 0,0 km/h (0 Bft) NO 41 0 min 0,000 mm 0,0 UV-I 0 W/m 15,4 C 16,4 C 0,0 km/h (0 Bft) 0,00 %
19.07.2015 05:20 16,4 C 94 % 1012,8 hPa 0,0 l/m 0,0 km/h (0 Bft) NO 43 0 min 0,000 mm 0,0 UV-I 0 W/m 15,4 C 16,4 C 0,0 km/h (0 Bft) 0,00 %
19.07.2015 05:25 16,2 C 94 % 1013,1 hPa 0,0 l/m 0,0 km/h (0 Bft) NO 41 0 min 0,000 mm 0,0 UV-I 0 W/m 15,2 C 16,2 C 0,0 km/h (0 Bft) 0,00 %
19.07.2015 05:30 16,2 C 94 % 1012,9 hPa 0,0 l/m 0,0 km/h (0 Bft) NO 43 0 min 0,000 mm 0,0 UV-I 0 W/m 15,2 C 16,2 C 0,0 km/h (0 Bft) 0,00 %
19.07.2015 05:35 16,2 C 95 % 1013,0 hPa 0,0 l/m 0,0 km/h (0 Bft) NO 42 0 min 0,000 mm 0,0 UV-I 3 W/m 15,4 C 16,2 C 0,0 km/h (0 Bft) 0,00 %
19.07.2015 05:40 16,2 C 95 % 1012,8 hPa 0,0 l/m 0,0 km/h (0 Bft) NO 46 0 min 0,000 mm 0,0 UV-I 9 W/m 15,4 C 16,2 C 0,0 km/h (0 Bft) 0,00 %
19.07.2015 05:45 16,3 C 95 % 1012,7 hPa 0,0 l/m 0,0 km/h (0 Bft) NO 44 0 min 0,000 mm 0,0 UV-I 19 W/m 15,5 C 16,3 C 0,0 km/h (0 Bft) 0,00 %
19.07.2015 05:50 16,3 C 95 % 1012,5 hPa 0,0 l/m 0,0 km/h (0 Bft) NO 46 0 min 0,000 mm 0,0 UV-I 27 W/m 15,5 C 16,3 C 0,0 km/h (0 Bft) 0,00 %
19.07.2015 05:55 16,4 C 95 % 1012,3 hPa 0,0 l/m 0,0 km/h (0 Bft) NO 44 5 min 0,000 mm 0,0 UV-I 36 W/m 15,6 C 16,4 C 0,0 km/h (0 Bft) 0,00 %
19.07.2015 06:00 16,6 C 95 % 1012,6 hPa 0,0 l/m 0,0 km/h (0 Bft) NO 43 5 min 0,000 mm 0,0 UV-I 46 W/m 15,8 C 16,6 C 0,0 km/h (0 Bft) 0,00 %
19.07.2015 06:05 16,8 C 95 % 1012,3 hPa 0,0 l/m 0,0 km/h (0 Bft) NO 43 5 min 0,000 mm 0,0 UV-I 54 W/m 16,0 C 16,8 C 0,0 km/h (0 Bft) 0,00 %
19.07.2015 06:10 17,1 C 95 % 1012,1 hPa 0,0 l/m 0,0 km/h (0 Bft) NO 43 5 min 0,000 mm 0,0 UV-I 86 W/m 16,3 C 17,1 C 0,0 km/h (0 Bft) 0,00 %
19.07.2015 06:15 17,6 C 94 % 1011,9 hPa 0,0 l/m 0,0 km/h (0 Bft) NO 44 5 min 0,000 mm 0,0 UV-I 108 W/m 16,6 C 17,6 C 0,0 km/h (0 Bft) 0,00 %
19.07.2015 06:20 18,2 C 93 % 1012,0 hPa 0,0 l/m 0,0 km/h (0 Bft) NO 43 5 min 0,000 mm 0,0 UV-I 141 W/m 17,0 C 18,2 C 0,0 km/h (0 Bft) 0,00 %
19.07.2015 06:25 18,8 C 90 % 1011,8 hPa 0,0 l/m 0,0 km/h (0 Bft) NO 43 5 min 0,000 mm 0,0 UV-I 167 W/m 17,1 C 18,8 C 0,0 km/h (0 Bft) 0,00 %
19.07.2015 06:30 19,3 C 86 % 1011,7 hPa 0,0 l/m 0,0 km/h (0 Bft) NO 43 5 min 0,000 mm 0,0 UV-I 94 W/m 16,9 C 19,3 C 0,0 km/h (0 Bft) 0,00 %
19.07.2015 06:35 19,7 C 81 % 1011,5 hPa 0,0 l/m 0,0 km/h (0 Bft) NO 41 5 min 0,000 mm 0,0 UV-I 98 W/m 16,3 C 19,7 C 0,0 km/h (0 Bft) 0,00 %
19.07.2015 06:40 19,9 C 80 % 1011,7 hPa 0,0 l/m 0,0 km/h (0 Bft) NO 36 5 min 0,000 mm 1,0 UV-I 105 W/m 16,3 C 19,9 C 0,0 km/h (0 Bft) 0,00 %
19.07.2015 06:45 20,0 C 79 % 1011,7 hPa 0,0 l/m 0,0 km/h (0 Bft) N 353 5 min 0,000 mm 1,0 UV-I 220 W/m 16,2 C 20,0 C 0,0 km/h (0 Bft) 0,00 %
19.07.2015 06:50 20,1 C 78 % 1011,7 hPa 0,0 l/m 0,0 km/h (0 Bft) N 351 5 min 0,000 mm 1,0 UV-I 251 W/m 16,1 C 20,1 C 0,0 km/h (0 Bft) 0,00 %
19.07.2015 06:55 20,2 C 77 % 1011,5 hPa 0,0 l/m 0,0 km/h (0 Bft) NO 41 5 min 0,000 mm 1,0 UV-I 151 W/m 16,0 C 20,2 C 0,0 km/h (0 Bft) 0,00 %
19.07.2015 07:00 20,5 C 76 % 1011,5 hPa 0,0 l/m 0,0 km/h (0 Bft) NO 41 5 min 0,000 mm 1,0 UV-I 333 W/m 16,1 C 20,5 C 0,0 km/h (0 Bft) 0,00 %
19.07.2015 07:05 21,2 C 73 % 1011,1 hPa 0,0 l/m 0,0 km/h (0 Bft) NO 54 5 min 0,000 mm 1,0 UV-I 349 W/m 16,2 C 21,2 C 0,0 km/h (0 Bft) 0,00 %
19.07.2015 07:10 21,9 C 71 % 1010,8 hPa 0,0 l/m 0,0 km/h (0 Bft) NO 46 5 min 0,000 mm 1,0 UV-I 373 W/m 16,4 C 21,9 C 0,0 km/h (0 Bft) 0,00 %
19.07.2015 07:15 22,6 C 69 % 1010,9 hPa 0,0 l/m 0,0 km/h (0 Bft) NO 47 5 min 0,000 mm 1,0 UV-I 205 W/m 16,6 C 22,6 C 0,0 km/h (0 Bft) 0,00 %
19.07.2015 07:20 22,7 C 69 % 1010,6 hPa 0,0 l/m 0,0 km/h (0 Bft) NO 41 5 min 0,000 mm 1,0 UV-I 392 W/m 16,7 C 22,7 C 0,0 km/h (0 Bft) 0,00 %
19.07.2015 07:25 22,5 C 71 % 1010,6 hPa 0,0 l/m 0,0 km/h (0 Bft) N 353 5 min 0,000 mm 1,0 UV-I 366 W/m 17,0 C 22,5 C 0,0 km/h (0 Bft) 0,00 %
19.07.2015 07:30 22,4 C 70 % 1010,7 hPa 0,0 l/m 0,0 km/h (0 Bft) N 350 5 min 0,000 mm 1,0 UV-I 177 W/m 16,7 C 22,4 C 0,0 km/h (0 Bft) 0,00 %
19.07.2015 07:35 22,4 C 71 % 1011,1 hPa 0,0 l/m 2,9 km/h (1 Bft) W 260 5 min 0,000 mm 1,0 UV-I 188 W/m 16,9 C 22,4 C 4,0 km/h (1 Bft) 0,00 %
19.07.2015 07:40 22,0 C 72 % 1011,2 hPa 0,0 l/m 0,0 km/h (0 Bft) NO 42 5 min 0,000 mm 1,0 UV-I 227 W/m 16,7 C 22,0 C 0,0 km/h (0 Bft) 0,00 %
19.07.2015 07:45 21,5 C 73 % 1011,1 hPa 0,0 l/m 0,0 km/h (0 Bft) NO 43 5 min 0,000 mm 1,0 UV-I 235 W/m 16,4 C 21,5 C 0,0 km/h (0 Bft) 0,00 %
19.07.2015 07:50 21,3 C 74 % 1011,4 hPa 0,0 l/m 1,4 km/h (1 Bft) N-NW 332 5 min 0,000 mm 1,0 UV-I 231 W/m 16,5 C 21,3 C 4,0 km/h (1 Bft) 0,00 %
19.07.2015 07:55 21,4 C 73 % 1011,4 hPa 0,0 l/m 0,0 km/h (0 Bft) N-NW 348 5 min 0,000 mm 1,0 UV-I 229 W/m 16,4 C 21,4 C 0,0 km/h (0 Bft) 0,00 %
19.07.2015 08:00 21,5 C 72 % 1011,7 hPa 0,0 l/m 0,4 km/h (0 Bft) N-NW 331 0 min 0,000 mm 1,0 UV-I 191 W/m 16,2 C 21,5 C 4,0 km/h (1 Bft) 0,00 %
19.07.2015 08:05 21,6 C 73 % 1011,3 hPa 0,0 l/m 0,0 km/h (0 Bft) N 11 0 min 0,000 mm 1,0 UV-I 214 W/m 16,5 C 21,6 C 0,0 km/h (0 Bft) 0,00 %
19.07.2015 08:10 21,9 C 72 % 1011,1 hPa 0,0 l/m 0,0 km/h (0 Bft) NO 36 0 min 0,000 mm 1,0 UV-I 190 W/m 16,6 C 21,9 C 0,0 km/h (0 Bft) 0,00 %
19.07.2015 08:15 22,0 C 72 % 1011,0 hPa 0,0 l/m 0,0 km/h (0 Bft) NO 35 0 min 0,000 mm 1,0 UV-I 238 W/m 16,7 C 22,0 C 0,0 km/h (0 Bft) 0,00 %
19.07.2015 08:20 22,2 C 72 % 1010,9 hPa 0,0 l/m 0,0 km/h (0 Bft) NO 44 5 min 0,000 mm 1,0 UV-I 292 W/m 16,9 C 22,2 C 0,0 km/h (0 Bft) 0,00 %
19.07.2015 08:25 22,4 C 72 % 1010,9 hPa 0,0 l/m 0,0 km/h (0 Bft) N 357 0 min 0,000 mm 1,0 UV-I 166 W/m 17,1 C 22,4 C 0,0 km/h (0 Bft) 0,00 %
19.07.2015 08:30 22,3 C 72 % 1011,1 hPa 0,0 l/m 0,0 km/h (0 Bft) N-NW 337 0 min 0,000 mm 1,0 UV-I 175 W/m 17,0 C 22,3 C 0,0 km/h (0 Bft) 0,00 %
19.07.2015 08:35 22,4 C 70 % 1010,5 hPa 0,0 l/m 0,7 km/h (0 Bft) N-NW 332 5 min 0,000 mm 1,0 UV-I 440 W/m 16,7 C 22,4 C 4,0 km/h (1 Bft) 0,00 %
19.07.2015 08:40 22,8 C 68 % 1010,4 hPa 0,0 l/m 1,4 km/h (1 Bft) W-NW 296 5 min 0,000 mm 1,0 UV-I 477 W/m 16,6 C 22,8 C 4,0 km/h (1 Bft) 0,00 %
19.07.2015 08:45 22,8 C 69 % 1010,4 hPa 0,0 l/m 0,0 km/h (0 Bft) N-NO 21 5 min 0,000 mm 1,0 UV-I 423 W/m 16,8 C 22,8 C 0,0 km/h (0 Bft) 0,00 %
19.07.2015 08:50 22,4 C 71 % 1010,7 hPa 0,0 l/m 0,0 km/h (0 Bft) NO 34 5 min 0,000 mm 2,0 UV-I 499 W/m 16,9 C 22,4 C 0,0 km/h (0 Bft) 0,00 %
19.07.2015 08:55 22,8 C 65 % 1010,4 hPa 0,0 l/m 0,4 km/h (0 Bft) NW 314 5 min 0,000 mm 2,0 UV-I 518 W/m 15,9 C 22,8 C 4,0 km/h (1 Bft) 0,00 %
19.07.2015 09:00 23,9 C 60 % 1010,1 hPa 0,0 l/m 0,0 km/h (0 Bft) N-NO 32 5 min 0,000 mm 2,0 UV-I 529 W/m 15,7 C 23,9 C 0,0 km/h (0 Bft) 0,00 %
19.07.2015 09:05 25,0 C 59 % 1009,9 hPa 0,0 l/m 0,0 km/h (0 Bft) N-NW 334 5 min 0,000 mm 2,0 UV-I 540 W/m 16,4 C 25,0 C 0,0 km/h (0 Bft) 0,00 %
19.07.2015 09:10 25,7 C 54 % 1009,8 hPa 0,0 l/m 0,0 km/h (0 Bft) NO 47 5 min 0,000 mm 2,0 UV-I 542 W/m 15,7 C 25,7 C 0,0 km/h (0 Bft) 0,00 %
19.07.2015 09:15 26,4 C 55 % 1009,8 hPa 0,0 l/m 0,0 km/h (0 Bft) NO 49 5 min 0,000 mm 2,0 UV-I 550 W/m 16,6 C 26,4 C 0,0 km/h (0 Bft) 0,00 %
19.07.2015 09:20 27,0 C 52 % 1009,7 hPa 0,0 l/m 0,4 km/h (0 Bft) O 95 5 min 0,000 mm 2,0 UV-I 544 W/m 16,3 C 27,0 C 4,0 km/h (1 Bft) 0,00 %
19.07.2015 09:25 27,5 C 48 % 1009,7 hPa 0,0 l/m 0,0 km/h (0 Bft) NO 40 5 min 0,000 mm 2,0 UV-I 581 W/m 15,5 C 27,5 C 0,0 km/h (0 Bft) 0,00 %
19.07.2015 09:30 28,0 C 49 % 1009,4 hPa 0,0 l/m 0,0 km/h (0 Bft) N-NO 28 5 min 0,000 mm 2,0 UV-I 585 W/m 16,3 C 28,0 C 0,0 km/h (0 Bft) 0,00 %
19.07.2015 09:35 28,4 C 48 % 1009,3 hPa 0,0 l/m 0,0 km/h (0 Bft) NO 36 5 min 0,000 mm 2,0 UV-I 588 W/m 16,3 C 28,4 C 0,0 km/h (0 Bft) 0,00 %
19.07.2015 09:40 28,4 C 51 % 1009,4 hPa 0,0 l/m 0,0 km/h (0 Bft) N 350 5 min 0,000 mm 2,0 UV-I 604 W/m 17,3 C 28,4 C 0,0 km/h (0 Bft) 0,00 %
19.07.2015 09:45 28,1 C 49 % 1009,2 hPa 0,0 l/m 1,8 km/h (1 Bft) O 101 5 min 0,000 mm 2,0 UV-I 621 W/m 16,4 C 28,1 C 4,0 km/h (1 Bft) 0,00 %
19.07.2015 09:50 28,1 C 48 % 1009,1 hPa 0,0 l/m 0,0 km/h (0 Bft) NO 56 5 min 0,000 mm 2,0 UV-I 614 W/m 16,0 C 28,1 C 0,0 km/h (0 Bft) 0,00 %
19.07.2015 09:55 28,0 C 48 % 1008,9 hPa 0,0 l/m 0,0 km/h (0 Bft) O-NO 65 5 min 0,000 mm 3,0 UV-I 670 W/m 15,9 C 28,0 C 0,0 km/h (0 Bft) 0,00 %
19.07.2015 10:00 28,1 C 47 % 1008,8 hPa 0,0 l/m 0,0 km/h (0 Bft) NO 53 5 min 0,000 mm 3,0 UV-I 617 W/m 15,7 C 28,1 C 0,0 km/h (0 Bft) 0,00 %
19.07.2015 10:05 28,5 C 48 % 1008,8 hPa 0,0 l/m 1,4 km/h (1 Bft) NW 319 5 min 0,000 mm 3,0 UV-I 654 W/m 16,4 C 28,5 C 4,0 km/h (1 Bft) 0,00 %
19.07.2015 10:10 28,2 C 52 % 1008,9 hPa 0,0 l/m 0,4 km/h (0 Bft) N 351 5 min 0,000 mm 3,0 UV-I 642 W/m 17,4 C 28,2 C 4,0 km/h (1 Bft) 0,00 %
19.07.2015 10:15 27,7 C 49 % 1008,9 hPa 0,0 l/m 0,0 km/h (0 Bft) NO 40 5 min 0,000 mm 3,0 UV-I 643 W/m 16,0 C 27,7 C 0,0 km/h (0 Bft) 0,00 %
19.07.2015 10:20 28,1 C 50 % 1008,7 hPa 0,0 l/m 0,4 km/h (0 Bft) O-NO 72 5 min 0,000 mm 3,0 UV-I 618 W/m 16,7 C 28,1 C 4,0 km/h (1 Bft) 0,00 %
19.07.2015 10:25 28,6 C 45 % 1009,0 hPa 0,0 l/m 0,0 km/h (0 Bft) NO 45 5 min 0,000 mm 3,0 UV-I 681 W/m 15,5 C 28,6 C 0,0 km/h (0 Bft) 0,00 %
19.07.2015 10:30 29,0 C 46 % 1008,7 hPa 0,0 l/m 0,0 km/h (0 Bft) NO 52 5 min 0,000 mm 3,0 UV-I 639 W/m 16,2 C 29,0 C 0,0 km/h (0 Bft) 0,00 %
19.07.2015 10:35 29,1 C 48 % 1008,6 hPa 0,0 l/m 0,0 km/h (0 Bft) NO 49 5 min 0,000 mm 3,0 UV-I 624 W/m 16,9 C 29,1 C 0,0 km/h (0 Bft) 0,00 %
19.07.2015 10:40 29,1 C 45 % 1008,8 hPa 0,0 l/m 0,4 km/h (0 Bft) NO 52 5 min 0,000 mm 3,0 UV-I 648 W/m 15,9 C 29,1 C 4,0 km/h (1 Bft) 0,00 %
19.07.2015 10:45 29,1 C 45 % 1008,5 hPa 0,0 l/m 0,0 km/h (0 Bft) NO 35 5 min 0,000 mm 3,0 UV-I 671 W/m 15,9 C 29,1 C 0,0 km/h (0 Bft) 0,00 %
19.07.2015 10:50 29,3 C 46 % 1008,6 hPa 0,0 l/m 0,0 km/h (0 Bft) O-SO 102 5 min 0,000 mm 3,0 UV-I 726 W/m 16,5 C 29,3 C 0,0 km/h (0 Bft) 0,00 %
19.07.2015 10:55 29,5 C 44 % 1008,3 hPa 0,0 l/m 1,4 km/h (1 Bft) O 86 5 min 0,000 mm 3,0 UV-I 767 W/m 15,9 C 29,5 C 4,0 km/h (1 Bft) 0,00 %
19.07.2015 11:00 29,7 C 44 % 1008,5 hPa 0,0 l/m 2,2 km/h (1 Bft) O 83 5 min 0,000 mm 4,0 UV-I 764 W/m 16,1 C 29,7 C 4,0 km/h (1 Bft) 0,00 %
19.07.2015 11:05 30,0 C 43 % 1008,4 hPa 0,0 l/m 0,0 km/h (0 Bft) N-NO 31 5 min 0,000 mm 4,0 UV-I 789 W/m 16,0 C 30,0 C 0,0 km/h (0 Bft) 0,00 %
19.07.2015 11:10 30,3 C 42 % 1008,3 hPa 0,0 l/m 0,4 km/h (0 Bft) NO 34 5 min 0,000 mm 4,0 UV-I 804 W/m 15,9 C 30,3 C 4,0 km/h (1 Bft) 0,00 %
19.07.2015 11:15 30,6 C 42 % 1008,3 hPa 0,0 l/m 3,2 km/h (1 Bft) N-NW 340 5 min 0,000 mm 4,0 UV-I 814 W/m 16,2 C 30,6 C 4,0 km/h (1 Bft) 0,00 %
19.07.2015 11:20 30,7 C 42 % 1008,3 hPa 0,0 l/m 0,0 km/h (0 Bft) O-NO 75 5 min 0,000 mm 4,0 UV-I 834 W/m 16,3 C 30,7 C 0,0 km/h (0 Bft) 0,00 %
19.07.2015 11:25 31,0 C 41 % 1008,1 hPa 0,0 l/m 0,0 km/h (0 Bft) O 101 5 min 0,000 mm 4,0 UV-I 854 W/m 16,2 C 31,0 C 0,0 km/h (0 Bft) 0,00 %
19.07.2015 11:30 31,4 C 41 % 1008,2 hPa 0,0 l/m 0,0 km/h (0 Bft) W-NW 288 5 min 0,000 mm 5,0 UV-I 858 W/m 16,5 C 31,4 C 0,0 km/h (0 Bft) 0,00 %
19.07.2015 11:35 31,8 C 42 % 1008,1 hPa 0,0 l/m 0,0 km/h (0 Bft) N-NO 33 5 min 0,000 mm 5,0 UV-I 828 W/m 17,3 C 31,8 C 0,0 km/h (0 Bft) 0,00 %
19.07.2015 11:40 32,0 C 41 % 1008,2 hPa 0,0 l/m 0,0 km/h (0 Bft) NO 43 5 min 0,000 mm 5,0 UV-I 754 W/m 17,1 C 32,0 C 0,0 km/h (0 Bft) 0,00 %
19.07.2015 11:45 32,2 C 42 % 1007,9 hPa 0,0 l/m 4,3 km/h (1 Bft) O 99 5 min 0,000 mm 5,0 UV-I 800 W/m 17,6 C 32,2 C 11,9 km/h (2 Bft) 0,00 %
19.07.2015 11:50 32,2 C 41 % 1007,9 hPa 0,0 l/m 0,0 km/h (0 Bft) N-NO 24 5 min 0,000 mm 5,0 UV-I 833 W/m 17,2 C 32,2 C 0,0 km/h (0 Bft) 0,00 %
19.07.2015 11:55 32,2 C 39 % 1007,9 hPa 0,0 l/m 0,0 km/h (0 Bft) O-SO 103 5 min 0,000 mm 4,0 UV-I 722 W/m 16,5 C 32,2 C 0,0 km/h (0 Bft) 0,00 %
19.07.2015 12:00 32,3 C 37 % 1008,0 hPa 0,0 l/m 0,0 km/h (0 Bft) NO 48 5 min 0,000 mm 4,0 UV-I 827 W/m 15,7 C 32,3 C 0,0 km/h (0 Bft) 0,00 %
19.07.2015 12:05 32,2 C 40 % 1007,8 hPa 0,0 l/m 1,8 km/h (1 Bft) O-NO 66 5 min 0,000 mm 5,0 UV-I 848 W/m 16,9 C 32,2 C 4,0 km/h (1 Bft) 0,00 %
19.07.2015 12:10 31,9 C 38 % 1007,8 hPa 0,0 l/m 2,2 km/h (1 Bft) W-NW 297 5 min 0,000 mm 5,0 UV-I 854 W/m 15,8 C 31,9 C 4,0 km/h (1 Bft) 0,00 %
19.07.2015 12:15 31,7 C 38 % 1008,2 hPa 0,0 l/m 2,9 km/h (1 Bft) NW 322 5 min 0,000 mm 5,0 UV-I 858 W/m 15,6 C 31,7 C 7,9 km/h (2 Bft) 0,00 %
19.07.2015 12:20 31,4 C 38 % 1008,2 hPa 0,0 l/m 0,0 km/h (0 Bft) N 349 5 min 0,000 mm 5,0 UV-I 872 W/m 15,3 C 31,4 C 0,0 km/h (0 Bft) 0,00 %
19.07.2015 12:25 31,2 C 38 % 1008,1 hPa 0,0 l/m 3,2 km/h (1 Bft) W-SW 256 5 min 0,000 mm 5,0 UV-I 878 W/m 15,2 C 31,2 C 4,0 km/h (1 Bft) 0,00 %
19.07.2015 12:30 31,3 C 39 % 1008,1 hPa 0,0 l/m 0,4 km/h (0 Bft) N-NO 24 5 min 0,000 mm 5,0 UV-I 878 W/m 15,7 C 31,3 C 4,0 km/h (1 Bft) 0,00 %
19.07.2015 12:35 31,4 C 41 % 1008,1 hPa 0,0 l/m 0,0 km/h (0 Bft) NO 40 5 min 0,000 mm 5,0 UV-I 882 W/m 16,5 C 31,4 C 0,0 km/h (0 Bft) 0,00 %
19.07.2015 12:40 31,6 C 40 % 1007,9 hPa 0,0 l/m 0,0 km/h (0 Bft) NO 56 5 min 0,000 mm 6,0 UV-I 882 W/m 16,3 C 31,6 C 0,0 km/h (0 Bft) 0,00 %
19.07.2015 12:45 31,9 C 40 % 1007,9 hPa 0,0 l/m 0,0 km/h (0 Bft) N-NO 18 5 min 0,000 mm 6,0 UV-I 884 W/m 16,6 C 31,9 C 0,0 km/h (0 Bft) 0,00 %
19.07.2015 12:50 32,2 C 38 % 1008,1 hPa 0,0 l/m 0,0 km/h (0 Bft) NO 42 5 min 0,000 mm 5,0 UV-I 894 W/m 16,0 C 32,2 C 0,0 km/h (0 Bft) 0,00 %
19.07.2015 12:55 32,3 C 39 % 1007,9 hPa 0,0 l/m 2,9 km/h (1 Bft) NW 309 5 min 0,000 mm 5,0 UV-I 849 W/m 16,5 C 32,3 C 4,0 km/h (1 Bft) 0,00 %
19.07.2015 13:00 32,3 C 39 % 1007,9 hPa 0,0 l/m 0,4 km/h (0 Bft) N-NO 21 5 min 0,000 mm 6,0 UV-I 912 W/m 16,5 C 32,3 C 4,0 km/h (1 Bft) 0,00 %
19.07.2015 13:05 32,2 C 38 % 1007,9 hPa 0,0 l/m 0,0 km/h (0 Bft) O-NO 67 5 min 0,000 mm 6,0 UV-I 908 W/m 16,0 C 32,2 C 0,0 km/h (0 Bft) 0,00 %
19.07.2015 13:10 32,1 C 39 % 1007,9 hPa 0,0 l/m 0,0 km/h (0 Bft) N-NW 347 5 min 0,000 mm 5,0 UV-I 932 W/m 16,4 C 32,1 C 0,0 km/h (0 Bft) 0,00 %
19.07.2015 13:15 32,2 C 38 % 1007,7 hPa 0,0 l/m 1,8 km/h (1 Bft) O-NO 75 5 min 0,000 mm 5,0 UV-I 900 W/m 16,0 C 32,2 C 4,0 km/h (1 Bft) 0,00 %
19.07.2015 13:20 32,6 C 40 % 1007,5 hPa 0,0 l/m 0,0 km/h (0 Bft) N 352 5 min 0,000 mm 5,0 UV-I 920 W/m 17,2 C 32,6 C 0,0 km/h (0 Bft) 0,00 %
19.07.2015 13:25 32,9 C 37 % 1007,4 hPa 0,0 l/m 0,0 km/h (0 Bft) N-NO 20 5 min 0,000 mm 5,0 UV-I 927 W/m 16,2 C 32,9 C 0,0 km/h (0 Bft) 0,00 %
19.07.2015 13:30 33,1 C 40 % 1007,5 hPa 0,0 l/m 0,0 km/h (0 Bft) N 349 5 min 0,000 mm 4,0 UV-I 935 W/m 17,7 C 33,1 C 0,0 km/h (0 Bft) 0,00 %
19.07.2015 13:35 33,3 C 34 % 1007,5 hPa 0,0 l/m 0,4 km/h (0 Bft) N-NW 339 5 min 0,000 mm 5,0 UV-I 950 W/m 15,3 C 33,3 C 4,0 km/h (1 Bft) 0,00 %
19.07.2015 13:40 33,3 C 35 % 1007,5 hPa 0,0 l/m 0,7 km/h (0 Bft) NO 52 5 min 0,000 mm 5,0 UV-I 963 W/m 15,7 C 33,3 C 4,0 km/h (1 Bft) 0,00 %
19.07.2015 13:45 33,3 C 36 % 1007,5 hPa 0,0 l/m 4,0 km/h (1 Bft) SW 233 5 min 0,000 mm 5,0 UV-I 784 W/m 16,2 C 33,3 C 7,9 km/h (2 Bft) 0,00 %
19.07.2015 13:50 33,2 C 34 % 1007,4 hPa 0,0 l/m 4,0 km/h (1 Bft) W-SW 256 5 min 0,000 mm 5,0 UV-I 1044 W/m 15,2 C 33,2 C 7,9 km/h (2 Bft) 0,00 %
19.07.2015 13:55 33,3 C 34 % 1007,2 hPa 0,0 l/m 4,7 km/h (1 Bft) W-NW 297 0 min 0,000 mm 5,0 UV-I 395 W/m 15,3 C 33,3 C 7,9 km/h (2 Bft) 0,00 %
19.07.2015 14:00 33,5 C 33 % 1007,3 hPa 0,0 l/m 0,0 km/h (0 Bft) NO 42 5 min 0,000 mm 4,0 UV-I 959 W/m 15,0 C 33,5 C 0,0 km/h (0 Bft) 0,00 %
19.07.2015 14:05 33,7 C 35 % 1007,2 hPa 0,0 l/m 9,0 km/h (2 Bft) NW 312 0 min 0,000 mm 5,0 UV-I 319 W/m 16,1 C 33,7 C 11,9 km/h (2 Bft) 0,00 %
19.07.2015 14:10 33,8 C 35 % 1007,1 hPa 0,0 l/m 0,0 km/h (0 Bft) N-NW 338 5 min 0,000 mm 5,0 UV-I 956 W/m 16,2 C 33,8 C 0,0 km/h (0 Bft) 0,00 %
19.07.2015 14:15 33,9 C 33 % 1007,0 hPa 0,0 l/m 4,7 km/h (1 Bft) N-NW 340 5 min 0,000 mm 4,0 UV-I 961 W/m 15,3 C 33,9 C 7,9 km/h (2 Bft) 0,00 %
19.07.2015 14:20 33,8 C 34 % 1007,0 hPa 0,0 l/m 6,8 km/h (2 Bft) NW 314 5 min 0,000 mm 5,0 UV-I 964 W/m 15,7 C 33,8 C 7,9 km/h (2 Bft) 0,00 %
19.07.2015 14:25 33,9 C 33 % 1006,9 hPa 0,0 l/m 8,3 km/h (2 Bft) NW 319 0 min 0,000 mm 3,0 UV-I 247 W/m 15,3 C 33,9 C 11,9 km/h (2 Bft) 0,00 %
19.07.2015 14:30 34,0 C 33 % 1006,9 hPa 0,0 l/m 0,0 km/h (0 Bft) N-NO 19 5 min 0,000 mm 5,0 UV-I 938 W/m 15,4 C 34,0 C 0,0 km/h (0 Bft) 0,00 %
19.07.2015 14:35 34,0 C 34 % 1006,7 hPa 0,0 l/m 4,7 km/h (1 Bft) W-SW 256 5 min 0,000 mm 4,0 UV-I 912 W/m 15,9 C 34,0 C 7,9 km/h (2 Bft) 0,00 %
19.07.2015 14:40 34,3 C 34 % 1006,6 hPa 0,0 l/m 0,0 km/h (0 Bft) NO 45 5 min 0,000 mm 4,0 UV-I 920 W/m 16,1 C 34,3 C 0,0 km/h (0 Bft) 0,00 %
19.07.2015 14:45 34,5 C 33 % 1006,7 hPa 0,0 l/m 4,0 km/h (1 Bft) N-NW 335 5 min 0,000 mm 2,0 UV-I 938 W/m 15,8 C 34,5 C 7,9 km/h (2 Bft) 0,00 %
19.07.2015 14:50 34,0 C 35 % 1006,6 hPa 0,0 l/m 0,0 km/h (0 Bft) NO 37 5 min 0,000 mm 4,0 UV-I 965 W/m 16,3 C 34,0 C 0,0 km/h (0 Bft) 0,00 %
19.07.2015 14:55 33,4 C 36 % 1006,5 hPa 0,0 l/m 0,0 km/h (0 Bft) O 97 5 min 0,000 mm 4,0 UV-I 947 W/m 16,3 C 33,4 C 0,0 km/h (0 Bft) 0,00 %
19.07.2015 15:00 33,3 C 33 % 1006,3 hPa 0,0 l/m 1,8 km/h (1 Bft) N 352 5 min 0,000 mm 4,0 UV-I 948 W/m 14,8 C 33,3 C 4,0 km/h (1 Bft) 0,00 %
19.07.2015 15:05 33,4 C 35 % 1006,3 hPa 0,0 l/m 0,4 km/h (0 Bft) NW 320 5 min 0,000 mm 4,0 UV-I 933 W/m 15,8 C 33,4 C 4,0 km/h (1 Bft) 0,00 %
19.07.2015 15:10 33,6 C 34 % 1006,3 hPa 0,0 l/m 0,4 km/h (0 Bft) O-NO 66 5 min 0,000 mm 4,0 UV-I 940 W/m 15,5 C 33,6 C 4,0 km/h (1 Bft) 0,00 %
19.07.2015 15:15 33,9 C 34 % 1006,2 hPa 0,0 l/m 0,7 km/h (0 Bft) N-NW 339 5 min 0,000 mm 4,0 UV-I 938 W/m 15,8 C 33,9 C 4,0 km/h (1 Bft) 0,00 %
19.07.2015 15:20 34,2 C 31 % 1006,2 hPa 0,0 l/m 9,0 km/h (2 Bft) NW 326 5 min 0,000 mm 4,0 UV-I 917 W/m 14,6 C 34,2 C 11,9 km/h (2 Bft) 0,00 %
19.07.2015 15:25 34,3 C 30 % 1005,8 hPa 0,0 l/m 6,5 km/h (2 Bft) NW 313 5 min 0,000 mm 4,0 UV-I 933 W/m 14,2 C 34,3 C 7,9 km/h (2 Bft) 0,00 %
19.07.2015 15:30 34,1 C 32 % 1005,8 hPa 0,0 l/m 0,4 km/h (0 Bft) O-NO 77 5 min 0,000 mm 4,0 UV-I 924 W/m 15,0 C 34,1 C 4,0 km/h (1 Bft) 0,00 %
19.07.2015 15:35 34,0 C 31 % 1005,9 hPa 0,0 l/m 0,7 km/h (0 Bft) N-NW 340 5 min 0,000 mm 3,0 UV-I 924 W/m 14,4 C 34,0 C 4,0 km/h (1 Bft) 0,00 %
19.07.2015 15:40 34,2 C 32 % 1005,8 hPa 0,0 l/m 0,0 km/h (0 Bft) NW 313 5 min 0,000 mm 3,0 UV-I 919 W/m 15,1 C 34,2 C 0,0 km/h (0 Bft) 0,00 %
19.07.2015 15:45 34,1 C 31 % 1005,6 hPa 0,0 l/m 0,0 km/h (0 Bft) N-NO 17 5 min 0,000 mm 3,0 UV-I 923 W/m 14,5 C 34,1 C 0,0 km/h (0 Bft) 0,00 %
19.07.2015 15:50 34,1 C 32 % 1005,5 hPa 0,0 l/m 7,2 km/h (2 Bft) N-NO 30 5 min 0,000 mm 3,0 UV-I 892 W/m 15,0 C 34,1 C 11,9 km/h (2 Bft) 0,00 %
19.07.2015 15:55 34,0 C 33 % 1005,7 hPa 0,0 l/m 6,8 km/h (2 Bft) W-SW 245 5 min 0,000 mm 3,0 UV-I 884 W/m 15,4 C 34,0 C 7,9 km/h (2 Bft) 0,00 %
19.07.2015 16:00 33,8 C 32 % 1005,6 hPa 0,0 l/m 0,0 km/h (0 Bft) NW 308 5 min 0,000 mm 3,0 UV-I 799 W/m 14,8 C 33,8 C 0,0 km/h (0 Bft) 0,00 %
19.07.2015 16:05 34,0 C 31 % 1005,6 hPa 0,0 l/m 5,4 km/h (1 Bft) N-NW 346 5 min 0,000 mm 3,0 UV-I 537 W/m 14,4 C 34,0 C 7,9 km/h (2 Bft) 0,00 %
19.07.2015 16:10 34,1 C 32 % 1005,6 hPa 0,0 l/m 4,3 km/h (1 Bft) NW 321 5 min 0,000 mm 3,0 UV-I 686 W/m 15,0 C 34,1 C 7,9 km/h (2 Bft) 0,00 %
19.07.2015 16:15 34,0 C 32 % 1005,6 hPa 0,0 l/m 0,0 km/h (0 Bft) O-NO 75 5 min 0,000 mm 3,0 UV-I 722 W/m 14,9 C 34,0 C 0,0 km/h (0 Bft) 0,00 %
19.07.2015 16:20 33,9 C 32 % 1005,6 hPa 0,0 l/m 1,8 km/h (1 Bft) N 352 5 min 0,000 mm 3,0 UV-I 526 W/m 14,8 C 33,9 C 4,0 km/h (1 Bft) 0,00 %
19.07.2015 16:25 33,8 C 32 % 1005,6 hPa 0,0 l/m 0,4 km/h (0 Bft) NO 48 5 min 0,000 mm 3,0 UV-I 468 W/m 14,8 C 33,8 C 4,0 km/h (1 Bft) 0,00 %
19.07.2015 16:30 33,7 C 32 % 1005,9 hPa 0,0 l/m 0,7 km/h (0 Bft) N-NO 15 5 min 0,000 mm 2,0 UV-I 366 W/m 14,7 C 33,7 C 4,0 km/h (1 Bft) 0,00 %
19.07.2015 16:35 33,7 C 32 % 1006,0 hPa 0,0 l/m 3,2 km/h (1 Bft) N 349 0 min 0,000 mm 2,0 UV-I 295 W/m 14,7 C 33,7 C 7,9 km/h (2 Bft) 0,00 %
19.07.2015 16:40 33,6 C 33 % 1006,0 hPa 0,0 l/m 0,0 km/h (0 Bft) NO 44 0 min 0,000 mm 2,0 UV-I 292 W/m 15,1 C 33,6 C 0,0 km/h (0 Bft) 0,00 %
19.07.2015 16:45 33,4 C 32 % 1006,1 hPa 0,0 l/m 0,0 km/h (0 Bft) N-NO 28 0 min 0,000 mm 2,0 UV-I 295 W/m 14,4 C 33,4 C 0,0 km/h (0 Bft) 0,00 %
19.07.2015 16:50 33,3 C 33 % 1006,1 hPa 0,0 l/m 0,0 km/h (0 Bft) NO 45 5 min 0,000 mm 2,0 UV-I 493 W/m 14,8 C 33,3 C 0,0 km/h (0 Bft) 0,00 %
19.07.2015 16:55 33,3 C 33 % 1006,1 hPa 0,0 l/m 1,4 km/h (1 Bft) N-NW 339 5 min 0,000 mm 2,0 UV-I 726 W/m 14,8 C 33,3 C 4,0 km/h (1 Bft) 0,00 %
19.07.2015 17:00 33,3 C 32 % 1005,9 hPa 0,0 l/m 1,8 km/h (1 Bft) NW 314 5 min 0,000 mm 2,0 UV-I 670 W/m 14,3 C 33,3 C 4,0 km/h (1 Bft) 0,00 %
19.07.2015 17:05 33,1 C 32 % 1006,1 hPa 0,0 l/m 1,4 km/h (1 Bft) NO 40 5 min 0,000 mm 1,0 UV-I 776 W/m 14,2 C 33,1 C 4,0 km/h (1 Bft) 0,00 %
19.07.2015 17:10 32,8 C 33 % 1006,1 hPa 0,0 l/m 5,8 km/h (2 Bft) W-NW 288 5 min 0,000 mm 1,0 UV-I 771 W/m 14,4 C 32,8 C 7,9 km/h (2 Bft) 0,00 %
19.07.2015 17:15 32,5 C 35 % 1005,9 hPa 0,0 l/m 1,8 km/h (1 Bft) N-NW 346 5 min 0,000 mm 1,0 UV-I 752 W/m 15,0 C 32,5 C 4,0 km/h (1 Bft) 0,00 %
19.07.2015 17:20 32,1 C 38 % 1006,0 hPa 0,0 l/m 0,0 km/h (0 Bft) NO 49 5 min 0,000 mm 1,0 UV-I 719 W/m 16,0 C 32,1 C 0,0 km/h (0 Bft) 0,00 %
19.07.2015 17:25 32,1 C 37 % 1005,8 hPa 0,0 l/m 4,0 km/h (1 Bft) N-NW 345 5 min 0,000 mm 1,0 UV-I 695 W/m 15,5 C 32,1 C 4,0 km/h (1 Bft) 0,00 %
19.07.2015 17:30 32,0 C 36 % 1005,9 hPa 0,0 l/m 0,0 km/h (0 Bft) NO 54 5 min 0,000 mm 1,0 UV-I 678 W/m 15,0 C 32,0 C 0,0 km/h (0 Bft) 0,00 %
19.07.2015 17:35 31,8 C 36 % 1005,9 hPa 0,0 l/m 0,0 km/h (0 Bft) O 82 5 min 0,000 mm 1,0 UV-I 665 W/m 14,9 C 31,8 C 0,0 km/h (0 Bft) 0,00 %
19.07.2015 17:40 31,8 C 35 % 1005,6 hPa 0,0 l/m 0,0 km/h (0 Bft) NO 41 5 min 0,000 mm 2,0 UV-I 642 W/m 14,4 C 31,8 C 0,0 km/h (0 Bft) 0,00 %
19.07.2015 17:45 32,1 C 35 % 1005,8 hPa 0,0 l/m 5,8 km/h (2 Bft) W-NW 302 5 min 0,000 mm 1,0 UV-I 614 W/m 14,7 C 32,1 C 11,9 km/h (2 Bft) 0,00 %
19.07.2015 17:50 32,4 C 34 % 1005,7 hPa 0,0 l/m 2,2 km/h (1 Bft) N 352 5 min 0,000 mm 1,0 UV-I 582 W/m 14,5 C 32,4 C 4,0 km/h (1 Bft) 0,00 %
19.07.2015 17:55 32,6 C 33 % 1005,4 hPa 0,0 l/m 0,7 km/h (0 Bft) N 349 5 min 0,000 mm 1,0 UV-I 564 W/m 14,2 C 32,6 C 4,0 km/h (1 Bft) 0,00 %
19.07.2015 18:00 32,9 C 32 % 1005,1 hPa 0,0 l/m 3,2 km/h (1 Bft) S-SW 208 5 min 0,000 mm 1,0 UV-I 546 W/m 14,0 C 32,9 C 4,0 km/h (1 Bft) 0,00 %
19.07.2015 18:05 33,0 C 32 % 1005,5 hPa 0,0 l/m 0,0 km/h (0 Bft) NO 56 5 min 0,000 mm 1,0 UV-I 533 W/m 14,1 C 33,0 C 0,0 km/h (0 Bft) 0,00 %
19.07.2015 18:10 33,0 C 33 % 1005,5 hPa 0,0 l/m 1,4 km/h (1 Bft) NW 322 5 min 0,000 mm 1,0 UV-I 520 W/m 14,5 C 33,0 C 4,0 km/h (1 Bft) 0,00 %
19.07.2015 18:15 33,0 C 34 % 1005,3 hPa 0,0 l/m 4,3 km/h (1 Bft) W-NW 301 5 min 0,000 mm 1,0 UV-I 491 W/m 15,0 C 33,0 C 7,9 km/h (2 Bft) 0,00 %
19.07.2015 18:20 33,0 C 35 % 1005,5 hPa 0,0 l/m 0,7 km/h (0 Bft) S-SO 151 5 min 0,000 mm 1,0 UV-I 471 W/m 15,5 C 33,0 C 4,0 km/h (1 Bft) 0,00 %
19.07.2015 18:25 32,8 C 35 % 1005,5 hPa 0,0 l/m 0,7 km/h (0 Bft) NO 54 5 min 0,000 mm 1,0 UV-I 430 W/m 15,3 C 32,8 C 4,0 km/h (1 Bft) 0,00 %
19.07.2015 18:30 32,5 C 34 % 1005,4 hPa 0,0 l/m 6,8 km/h (2 Bft) S 186 5 min 0,000 mm 1,0 UV-I 409 W/m 14,6 C 32,5 C 19,8 km/h (3 Bft) 0,00 %
19.07.2015 18:35 32,2 C 34 % 1005,4 hPa 0,0 l/m 7,9 km/h (2 Bft) W-SW 245 5 min 0,000 mm 1,0 UV-I 381 W/m 14,3 C 32,2 C 15,8 km/h (3 Bft) 0,00 %
19.07.2015 18:40 32,0 C 32 % 1005,7 hPa 0,0 l/m 0,0 km/h (0 Bft) NO 44 5 min 0,000 mm 1,0 UV-I 353 W/m 13,2 C 32,0 C 0,0 km/h (0 Bft) 0,00 %
19.07.2015 18:45 31,9 C 32 % 1005,6 hPa 0,0 l/m 1,8 km/h (1 Bft) W-SW 255 5 min 0,000 mm 1,0 UV-I 331 W/m 13,1 C 31,9 C 4,0 km/h (1 Bft) 0,00 %
19.07.2015 18:50 31,9 C 34 % 1005,6 hPa 0,0 l/m 0,4 km/h (0 Bft) NO 39 5 min 0,000 mm 1,0 UV-I 309 W/m 14,1 C 31,9 C 4,0 km/h (1 Bft) 0,00 %
19.07.2015 18:55 31,9 C 34 % 1005,6 hPa 0,0 l/m 0,0 km/h (0 Bft) NO 40 5 min 0,000 mm 1,0 UV-I 289 W/m 14,1 C 31,9 C 0,0 km/h (0 Bft) 0,00 %
19.07.2015 19:00 31,8 C 32 % 1005,7 hPa 0,0 l/m 0,0 km/h (0 Bft) O-NO 77 5 min 0,000 mm 1,0 UV-I 242 W/m 13,0 C 31,8 C 0,0 km/h (0 Bft) 0,00 %
19.07.2015 19:05 31,5 C 32 % 1005,9 hPa 0,0 l/m 0,0 km/h (0 Bft) N 352 5 min 0,000 mm 1,0 UV-I 205 W/m 12,8 C 31,5 C 0,0 km/h (0 Bft) 0,00 %
19.07.2015 19:10 31,3 C 32 % 1006,0 hPa 0,0 l/m 0,0 km/h (0 Bft) N-NO 30 5 min 0,000 mm 1,0 UV-I 149 W/m 12,6 C 31,3 C 0,0 km/h (0 Bft) 0,00 %
19.07.2015 19:15 31,2 C 34 % 1006,0 hPa 0,0 l/m 0,0 km/h (0 Bft) O-SO 116 0 min 0,000 mm 1,0 UV-I 122 W/m 13,4 C 31,2 C 0,0 km/h (0 Bft) 0,00 %
19.07.2015 19:20 31,1 C 34 % 1006,0 hPa 0,0 l/m 0,4 km/h (0 Bft) NW 322 0 min 0,000 mm 1,0 UV-I 70 W/m 13,4 C 31,1 C 4,0 km/h (1 Bft) 0,00 %
19.07.2015 19:25 30,9 C 35 % 1005,9 hPa 0,0 l/m 0,0 km/h (0 Bft) NO 42 0 min 0,000 mm 1,0 UV-I 21 W/m 13,6 C 30,9 C 0,0 km/h (0 Bft) 0,00 %
19.07.2015 19:30 30,8 C 35 % 1006,2 hPa 0,0 l/m 0,0 km/h (0 Bft) O-NO 60 0 min 0,000 mm 1,0 UV-I 8 W/m 13,5 C 30,8 C 0,0 km/h (0 Bft) 0,00 %
19.07.2015 19:35 30,8 C 37 % 1006,0 hPa 0,0 l/m 0,7 km/h (0 Bft) NO 55 0 min 0,000 mm 1,0 UV-I 2 W/m 14,4 C 30,8 C 4,0 km/h (1 Bft) 0,00 %
19.07.2015 19:40 30,7 C 37 % 1006,1 hPa 0,0 l/m 0,0 km/h (0 Bft) NO 45 0 min 0,000 mm 0,0 UV-I 4 W/m 14,3 C 30,7 C 0,0 km/h (0 Bft) 0,00 %
19.07.2015 19:45 30,3 C 37 % 1005,8 hPa 0,0 l/m 0,0 km/h (0 Bft) N 3 0 min 0,000 mm 0,0 UV-I 3 W/m 14,0 C 30,3 C 0,0 km/h (0 Bft) 0,00 %
19.07.2015 19:50 30,0 C 38 % 1005,9 hPa 0,0 l/m 0,0 km/h (0 Bft) NO 43 0 min 0,000 mm 0,0 UV-I 7 W/m 14,1 C 30,0 C 0,0 km/h (0 Bft) 0,00 %
19.07.2015 19:55 29,9 C 39 % 1006,0 hPa 0,0 l/m 0,0 km/h (0 Bft) O-NO 57 0 min 0,000 mm 0,0 UV-I 9 W/m 14,4 C 29,9 C 0,0 km/h (0 Bft) 0,00 %
19.07.2015 20:00 29,7 C 40 % 1006,1 hPa 0,0 l/m 0,0 km/h (0 Bft) NO 54 0 min 0,000 mm 0,0 UV-I 4 W/m 14,6 C 29,7 C 0,0 km/h (0 Bft) 0,00 %
19.07.2015 20:05 29,5 C 40 % 1006,0 hPa 0,0 l/m 0,0 km/h (0 Bft) N 352 0 min 0,000 mm 0,0 UV-I 5 W/m 14,5 C 29,5 C 0,0 km/h (0 Bft) 0,00 %
19.07.2015 20:10 29,3 C 40 % 1005,8 hPa 0,0 l/m 0,0 km/h (0 Bft) NO 34 0 min 0,000 mm 0,0 UV-I 6 W/m 14,3 C 29,3 C 0,0 km/h (0 Bft) 0,00 %
19.07.2015 20:15 29,0 C 41 % 1006,2 hPa 0,0 l/m 0,0 km/h (0 Bft) NO 46 0 min 0,000 mm 0,0 UV-I 0 W/m 14,4 C 29,0 C 0,0 km/h (0 Bft) 0,00 %
19.07.2015 20:20 28,6 C 43 % 1006,3 hPa 0,0 l/m 0,0 km/h (0 Bft) NO 42 0 min 0,000 mm 0,0 UV-I 0 W/m 14,8 C 28,6 C 0,0 km/h (0 Bft) 0,00 %
19.07.2015 20:25 28,2 C 44 % 1006,4 hPa 0,0 l/m 0,0 km/h (0 Bft) NO 44 0 min 0,000 mm 0,0 UV-I 0 W/m 14,8 C 28,2 C 0,0 km/h (0 Bft) 0,00 %
19.07.2015 20:30 27,8 C 44 % 1006,6 hPa 0,0 l/m 0,0 km/h (0 Bft) NO 47 0 min 0,000 mm 0,0 UV-I 0 W/m 14,4 C 27,8 C 0,0 km/h (0 Bft) 0,00 %
19.07.2015 20:35 27,3 C 45 % 1006,6 hPa 0,0 l/m 0,0 km/h (0 Bft) NO 52 0 min 0,000 mm 0,0 UV-I 0 W/m 14,3 C 27,3 C 0,0 km/h (0 Bft) 0,00 %
19.07.2015 20:40 27,0 C 46 % 1006,9 hPa 0,0 l/m 0,0 km/h (0 Bft) NO 56 0 min 0,000 mm 0,0 UV-I 0 W/m 14,4 C 27,0 C 0,0 km/h (0 Bft) 0,00 %
19.07.2015 20:45 26,7 C 47 % 1007,0 hPa 0,0 l/m 0,0 km/h (0 Bft) N-NO 15 0 min 0,000 mm 0,0 UV-I 0 W/m 14,4 C 26,7 C 0,0 km/h (0 Bft) 0,00 %
19.07.2015 20:50 26,4 C 48 % 1007,3 hPa 0,0 l/m 0,0 km/h (0 Bft) NO 46 0 min 0,000 mm 0,0 UV-I 0 W/m 14,5 C 26,4 C 0,0 km/h (0 Bft) 0,00 %
19.07.2015 20:55 26,2 C 48 % 1007,3 hPa 0,0 l/m 0,0 km/h (0 Bft) NO 48 0 min 0,000 mm 0,0 UV-I 0 W/m 14,3 C 26,2 C 0,0 km/h (0 Bft) 0,00 %
19.07.2015 21:00 26,0 C 49 % 1007,5 hPa 0,0 l/m 0,0 km/h (0 Bft) NO 45 0 min 0,000 mm 0,0 UV-I 0 W/m 14,4 C 26,0 C 0,0 km/h (0 Bft) 0,00 %
19.07.2015 21:05 25,8 C 50 % 1007,8 hPa 0,0 l/m 0,0 km/h (0 Bft) NO 46 0 min 0,000 mm 0,0 UV-I 0 W/m 14,6 C 25,8 C 0,0 km/h (0 Bft) 0,00 %
19.07.2015 21:10 25,6 C 52 % 1007,8 hPa 0,0 l/m 0,0 km/h (0 Bft) NO 48 0 min 0,000 mm 0,0 UV-I 0 W/m 15,0 C 25,6 C 0,0 km/h (0 Bft) 0,00 %
19.07.2015 21:15 25,5 C 52 % 1007,9 hPa 0,0 l/m 0,0 km/h (0 Bft) NO 49 0 min 0,000 mm 0,0 UV-I 0 W/m 14,9 C 25,5 C 0,0 km/h (0 Bft) 0,00 %
19.07.2015 21:20 25,4 C 51 % 1008,4 hPa 0,0 l/m 0,0 km/h (0 Bft) NO 37 0 min 0,000 mm 0,0 UV-I 0 W/m 14,5 C 25,4 C 0,0 km/h (0 Bft) 0,00 %
19.07.2015 21:25 25,4 C 51 % 1008,4 hPa 0,0 l/m 0,0 km/h (0 Bft) NO 53 0 min 0,000 mm 0,0 UV-I 0 W/m 14,5 C 25,4 C 0,0 km/h (0 Bft) 0,00 %
19.07.2015 21:30 25,4 C 51 % 1008,4 hPa 0,0 l/m 0,0 km/h (0 Bft) N-NO 29 0 min 0,000 mm 0,0 UV-I 0 W/m 14,5 C 25,4 C 0,0 km/h (0 Bft) 0,00 %
19.07.2015 21:35 25,3 C 52 % 1008,3 hPa 0,0 l/m 0,0 km/h (0 Bft) NO 43 0 min 0,000 mm 0,0 UV-I 0 W/m 14,7 C 25,3 C 0,0 km/h (0 Bft) 0,00 %
19.07.2015 21:40 25,2 C 52 % 1008,4 hPa 0,0 l/m 0,0 km/h (0 Bft) O-NO 63 0 min 0,000 mm 0,0 UV-I 0 W/m 14,6 C 25,2 C 0,0 km/h (0 Bft) 0,00 %
19.07.2015 21:45 25,2 C 51 % 1008,5 hPa 0,0 l/m 0,0 km/h (0 Bft) N 350 0 min 0,000 mm 0,0 UV-I 0 W/m 14,3 C 25,2 C 0,0 km/h (0 Bft) 0,00 %
19.07.2015 21:50 25,3 C 50 % 1008,5 hPa 0,0 l/m 4,3 km/h (1 Bft) W-NW 298 0 min 0,000 mm 0,0 UV-I 0 W/m 14,1 C 25,3 C 7,9 km/h (2 Bft) 0,00 %
19.07.2015 21:55 25,6 C 48 % 1008,6 hPa 0,0 l/m 2,9 km/h (1 Bft) W-SW 239 0 min 0,000 mm 0,0 UV-I 0 W/m 13,8 C 25,6 C 4,0 km/h (1 Bft) 0,00 %
19.07.2015 22:00 25,9 C 48 % 1008,7 hPa 0,0 l/m 9,0 km/h (2 Bft) W 262 0 min 0,000 mm 0,0 UV-I 0 W/m 14,0 C 25,3 C 11,9 km/h (2 Bft) 0,00 %
19.07.2015 22:05 26,1 C 47 % 1008,8 hPa 0,0 l/m 10,4 km/h (2 Bft) W-SW 258 0 min 0,000 mm 0,0 UV-I 0 W/m 13,9 C 25,3 C 15,8 km/h (3 Bft) 0,00 %
19.07.2015 22:10 26,2 C 45 % 1009,3 hPa 0,0 l/m 14,4 km/h (3 Bft) W-SW 253 0 min 0,000 mm 0,0 UV-I 0 W/m 13,3 C 24,8 C 15,8 km/h (3 Bft) 0,00 %
19.07.2015 22:15 26,1 C 44 % 1009,3 hPa 0,0 l/m 8,3 km/h (2 Bft) W-NW 298 0 min 0,000 mm 0,0 UV-I 0 W/m 12,9 C 25,7 C 15,8 km/h (3 Bft) 0,00 %
19.07.2015 22:20 26,0 C 46 % 1009,6 hPa 0,0 l/m 4,7 km/h (1 Bft) N-NW 330 0 min 0,000 mm 0,0 UV-I 0 W/m 13,5 C 26,0 C 7,9 km/h (2 Bft) 0,00 %
19.07.2015 22:25 25,8 C 46 % 1009,8 hPa 0,0 l/m 0,0 km/h (0 Bft) NO 44 0 min 0,000 mm 0,0 UV-I 0 W/m 13,3 C 25,8 C 0,0 km/h (0 Bft) 0,00 %
19.07.2015 22:30 25,7 C 46 % 1010,0 hPa 0,0 l/m 9,4 km/h (2 Bft) W-SW 256 0 min 0,000 mm 0,0 UV-I 0 W/m 13,2 C 25,0 C 15,8 km/h (3 Bft) 0,00 %
19.07.2015 22:35 25,5 C 46 % 1009,9 hPa 0,0 l/m 11,9 km/h (2 Bft) W-SW 257 0 min 0,000 mm 0,0 UV-I 0 W/m 13,0 C 24,4 C 15,8 km/h (3 Bft) 0,00 %
19.07.2015 22:40 25,3 C 46 % 1010,0 hPa 0,0 l/m 8,3 km/h (2 Bft) SW 219 0 min 0,000 mm 0,0 UV-I 0 W/m 12,8 C 24,8 C 11,9 km/h (2 Bft) 0,00 %
19.07.2015 22:45 25,0 C 49 % 1009,9 hPa 0,0 l/m 9,4 km/h (2 Bft) N-NW 329 0 min 0,000 mm 0,0 UV-I 0 W/m 13,5 C 24,3 C 15,8 km/h (3 Bft) 0,00 %
19.07.2015 22:50 24,6 C 49 % 1009,8 hPa 0,0 l/m 2,2 km/h (1 Bft) O 86 0 min 0,000 mm 0,0 UV-I 0 W/m 13,2 C 24,6 C 4,0 km/h (1 Bft) 0,00 %
19.07.2015 22:55 24,2 C 51 % 1010,2 hPa 0,0 l/m 9,0 km/h (2 Bft) W-NW 295 0 min 0,000 mm 0,0 UV-I 0 W/m 13,4 C 23,5 C 15,8 km/h (3 Bft) 0,00 %
19.07.2015 23:00 23,7 C 55 % 1010,1 hPa 0,0 l/m 4,0 km/h (1 Bft) W-SW 242 0 min 0,000 mm 0,0 UV-I 0 W/m 14,1 C 23,7 C 7,9 km/h (2 Bft) 0,00 %
19.07.2015 23:05 23,1 C 58 % 1010,3 hPa 0,0 l/m 0,0 km/h (0 Bft) N-NO 26 0 min 0,000 mm 0,0 UV-I 0 W/m 14,4 C 23,1 C 0,0 km/h (0 Bft) 0,00 %
19.07.2015 23:10 22,7 C 61 % 1010,2 hPa 0,0 l/m 0,0 km/h (0 Bft) N-NO 18 0 min 0,000 mm 0,0 UV-I 0 W/m 14,8 C 22,7 C 0,0 km/h (0 Bft) 0,00 %
19.07.2015 23:15 22,4 C 63 % 1010,4 hPa 0,0 l/m 2,2 km/h (1 Bft) S-SW 211 0 min 0,000 mm 0,0 UV-I 0 W/m 15,0 C 22,4 C 4,0 km/h (1 Bft) 0,00 %
19.07.2015 23:20 22,2 C 64 % 1010,3 hPa 0,0 l/m 2,2 km/h (1 Bft) NO 53 0 min 0,000 mm 0,0 UV-I 0 W/m 15,1 C 22,2 C 4,0 km/h (1 Bft) 0,00 %
19.07.2015 23:25 22,0 C 64 % 1010,2 hPa 0,0 l/m 0,4 km/h (0 Bft) N-NO 17 0 min 0,000 mm 0,0 UV-I 0 W/m 14,9 C 22,0 C 4,0 km/h (1 Bft) 0,00 %
19.07.2015 23:30 21,8 C 63 % 1010,1 hPa 0,0 l/m 0,0 km/h (0 Bft) N 351 0 min 0,000 mm 0,0 UV-I 0 W/m 14,4 C 21,8 C 0,0 km/h (0 Bft) 0,00 %
19.07.2015 23:35 21,8 C 63 % 1009,9 hPa 0,0 l/m 0,4 km/h (0 Bft) SW 224 0 min 0,000 mm 0,0 UV-I 0 W/m 14,4 C 21,8 C 4,0 km/h (1 Bft) 0,00 %
19.07.2015 23:40 21,7 C 63 % 1010,1 hPa 0,0 l/m 0,0 km/h (0 Bft) N 355 0 min 0,000 mm 0,0 UV-I 0 W/m 14,3 C 21,7 C 0,0 km/h (0 Bft) 0,00 %
19.07.2015 23:45 21,6 C 64 % 1010,1 hPa 0,0 l/m 2,2 km/h (1 Bft) O-NO 68 0 min 0,000 mm 0,0 UV-I 0 W/m 14,5 C 21,6 C 4,0 km/h (1 Bft) 0,00 %
19.07.2015 23:50 21,5 C 65 % 1010,2 hPa 0,0 l/m 5,4 km/h (1 Bft) W 270 0 min 0,000 mm 0,0 UV-I 0 W/m 14,6 C 21,5 C 7,9 km/h (2 Bft) 0,00 %
_ Min-Zeit 05:25 15:25 18:00 - 00:00 - - - - - - 19:10 05:25 00:00 00:00
Minimum _ 16,2 C 30 % 1005,1 hPa - 0,0 km/h (0 Bft) - - - - - - 12,6 C 16,2 C 0,0 km/h (0 Bft) 0,00 %
_ Max-Zeit 14:45 04:30 00:45 00:00 22:10 - - 05:55 00:00 12:40 13:50 13:30 14:45 18:30 00:00
Maximum _ 34,5 C 95 % 1014,8 hPa 0,0 l/m 14,4 km/h
W-SW (3 Bft)
- - 5 min 0,000 mm 6,0 UV-I 1044 W/m 17,7 C 34,5 C 19,8 km/h
S (3 Bft)
0,00 %
Durchschnitt _ 25,9 C 58 % 1009,5 hPa #0,0 l/m 1,1 km/h (1 Bft) W-SW - #12:20 h #0,000 mm 2,7 UV-I 543 W/m 15,6 C 25,9 C 2,2 km/h (1 Bft) 0,00 %